Showing default

SAUDISAT 4, 40016

Orbit data source: Space-Track

SAUDISAT 4, 40016 is a payload satellite owned by KACST (SA) in SSO that was launched on Thu, 19 Jun 2014 UTC via a DNEPR launch vehicle from the Orenburg, Russia (OREN). Payload-class satellites include a variety of spacecraft equipped with specific instruments for various scientific and technological missions. These include communications satellites like Starlink; space stations such as the ISS; scientific satellites like the Hubble; Earth observation satellites from companies like Planet Labs, Umbra, and HawkEye 360; GPS; miniature CubeSats for education and research; and military/defense satellites.

Loading next visibility...
Identifier
40016, 2014-033G
Orbit
SSO
Country
Flag of SASA / SAUD
Related business
Manufacturer
KACST
Mission
Operational Civil Technology
Bus & Motor
SAUDISAT, Unknown motor
Mass
100 kg wet, 100 kg dry
Launch date (UTC)
2014-06-19 (12 years ago)
Launch vehicle
DNEPR
Launch site
Orenburg, Russia (OREN)
Object type
Payload
Rocket body
Debris
Shape & HBR
Box, 0.3 m
Radar Cross Section
0.275 m², Medium (>0.1 m² and < 1m²)

Expand to show TLE details & history
Last TLE update: 15 hours ago

TLE from 15 hours ago
0 SAUDISAT 4
1 40016U 14033G   26123.88786160  .00000802  00000-0  11253-3 0  9995
2 40016  97.7523 271.5712 0044007 216.0499 143.7744 14.79478683639529
Epoch: 2026-05-03T21:18Z
TLE epoch observation values (Epoch: 2026-05-03T21:18:31.242Z)
Latitude
0.00003°
Longitude
90.15606°
Altitude
658.93 km
Speed
7.515 km/s
True Right ascension
18h 06m 17s
True Declination
0° 00' 00"
Sunlit
Object was in full shadow at epoch
Visualization orbit readout
Latitude
Unknown
Longitude
Unknown
Altitude
Unknown
Speed
Unknown
Apparent Right ascension
Unknown
Apparent Declination
Unknown
Sunlit
N/A
Visualization observer readout
Local Sidereal Time
20:12:06
Azimuth
Unknown
Elevation
Unknown
Doppler factor
Unknown
Orbital elements
Apogee altitude
658.837 km
Perigee altitude
597.173 km
Semi-major axis
7,006.142 km
Eccentricity
0.0044
Inclination
97.7523°
RAAN
271.5712°
Arg. of periapsis
216.0499°
True anomaly
144.0711°
Mean anomaly
143.7744°
Eccentric anomaly
143.92288°
Mean motion
3.70105 °/min
Orbital period
97.27 mins
BSTAR
0.00011253
Loading maneuver chart data...
Computing Atmospheric mass density...
Loading historical data...
Loading historical data...
Loading historical data...
Loading historical data...
Loading historical data...
Loading historical data...
Loading historical data...

Documentation

Showing up to 5 results
|